KUIPER-00156 (65775 NORAD) Tracking and Keplerian Element Data

This shows tracking and keplerian element data for the satellite.

Feedback or suggestion? Click here.




ElementValue
Catalog65775
NameKUIPER-00156
Epoch Orbit399
Epoch Day354.00002315
Epoch Year2025
RAAN28.7571
Inclination51.8719
Eccentricity0.0003461
Argument of Perigee37.4807
Mean Anonmoly155.4237
Mean Motion15.39412282
Decay Rate0.00056883
L11 65775U 25217P 25354.00002315 .00056883 00000+0 14296-2 0 9990
L22 65775 51.8719 28.7571 0003461 37.4807 155.4237 15.39412282 3991



Live tracking and technical data element details for KUIPER-00156 (NORAD 65775). KUIPER-00156 can be tracked NOW for your location showing map with azimuth and elevation plus other details from your city location.







IsCatalogInMostPopularTable: catalog: 65775, numindb: 11
Update: records affected: 1



GetName: 65775 KUIPER-00156

Hit Count: updated at: Tue, 21 Apr 2026 19:49:57 GMT